Regional Weather Roundup
Issued by NWS

Home | Current Version | Previous Version | Text Only | Print | Product List | Glossary Off
Versions: 1 2 3 4 5 6 7 8 9 10 11 12 13 14 15 16 17 18 19 20 21 22 23 24 25 26 27 28 29 30 31 32 33 34 35 36 37 38 39 40 41 42 43 44 45 46 47 48 49 50

000
ASUS43 KLSX 022159
RWRMO

WEATHER SUMMARY FOR MISSOURI
NATIONAL WEATHER SERVICE SPRINGFIELD MO
500 PM CDT THU JUL 02 2015

NOTE: "FAIR" INDICATES FEW OR NO CLOUDS BELOW 12,000 FEET WITH NO
       SIGNIFICANT WEATHER AND/OR OBSTRUCTIONS TO VISIBILITY.
       CURRENT SKY AND/OR WEATHER CONDITIONS ARE NOT AVAILABLE FOR
       CHILLICOTHE AND FARMINGTON.

MOZ001>031-035>038-043-044-053-054-022300-
...NORTHERN AND WESTERN MISSOURI...

CITY           SKY/WX    TMP DP  RH WIND       PRES   REMARKS
KANSAS CTY INT LGT RAIN  70  67  90 E8        29.94R FOG
KANSAS C DTWN  CLOUDY    72  68  87 NE7       29.93R
LEE`S SUMMIT   CLOUDY    72  67  84 N8        29.94R
ST JOSEPH      CLOUDY    70  66  87 E8        29.94R
CHILLICOTHE      N/A     73  65  75 CALM      29.94F
KIRKSVILLE     CLOUDY    71  58  63 NE7       29.96F

$$
MOZ066>068-077>081-088>096-101>105-022300-
...SOUTHWEST MISSOURI...

CITY           SKY/WX    TMP DP  RH WIND       PRES   REMARKS
SPRINGFIELD    PTSUNNY   81  72  74 N10       29.87F
JOPLIN         PTSUNNY   82  73  74 N7        29.87F

$$
MOZ032>034-039>042-045>050-055>058-069>072-022300-
...CENTRAL MISSOURI...

CITY           SKY/WX    TMP DP  RH WIND       PRES   REMARKS
COLUMBIA       CLOUDY    74  66  76 NE7       29.92S
JEFFERSON CITY CLOUDY    75  66  73 NE5       29.90S
ROLLA          CLOUDY    72  68  87 NE9       29.90R
SEDALIA        CLOUDY    74  67  78 NE7       29.92F
WHITEMAN AFB   CLOUDY    73  68  83 NE10      29.91S
OSAGE BEACH    CLOUDY    73  68  83 NE6       29.90S

$$
MOZ051-052-059>065-022300-
...EAST CENTRAL MISSOURI...

CITY           SKY/WX    TMP DP  RH WIND       PRES   REMARKS
ST LOUIS INTL  CLOUDY    78  63  59 NE9       29.89S
SPIRIT OF STL  CLOUDY    76  65  68 VRB5      29.88S
ST CHARLES     PTSUNNY   76  65  68 NE10      29.88S

$$
MOZ072>076-082>087-097>100-106>115-022300-
...SOUTH CENTRAL AND SOUTHEAST MISSOURI...

CITY           SKY/WX    TMP DP  RH WIND       PRES   REMARKS
CAPE GIRARDEAU MOSUNNY   82  72  71 N6        29.83F
FARMINGTON     CLOUDY    75  70  83 NE7       29.92R
POPLAR BLUFF   PTSUNNY   82  72  71 N10       29.82S
WEST PLAINS    PTSUNNY   83  72  69 CALM      29.87S

$$



USA.gov is the U.S. government's official web portal to all federal, state and local government web resources and services.